[[{"header":{"parameterUnit":"m.s-1","parameterCategory":1,"la1":30.2991,"la2":30.254,"lo1":-89.0895,"lo2":-89.0444,"dy":0.0017,"dx":0.0017,"nx":28,"ny":28,"refTime":"2024-04-02T21:00:00:Z","depth":0,"parameterNumber":2,"parameterNumberName":"U-component_of_WINDS"},"data":[0,0,0,0,0,0,0,0,0,0,0,0,0,0,0,0,0,0,0,0,0,0,0,0,0,0,0,0,0,0,0,0,0,0,0,0,0,0,0,0,0,0,0,0,0,0,0,0,0,0,0,0,0,0,0,0,0,0,3.5586,3.5587,0,3.5626,3.5626,3.5627,3.5619,3.5618,3.5617,3.5616,3.5657,3.5659,3.566,0,0,0,0,0,0,0,0,0,0,0,0,0,3.5505,3.5507,3.5586,3.5587,3.5587,3.5626,3.5626,3.5627,3.5619,3.5618,3.5617,3.5616,3.5656,3.5658,3.566,0,0,0,0,0,0,0,0,0,0,0,0,0,3.5542,3.5507,3.5586,3.5588,3.5588,3.5625,3.5626,3.5627,3.5619,3.5618,3.5617,3.5616,3.5656,3.5658,3.5661,3.5699,0,0,3.5669,3.567,0,0,0,0,0,0,0,0,3.554,3.5545,3.5587,3.5588,3.5588,3.5616,3.5612,3.5651,3.5619,3.5607,3.5616,3.5615,3.5644,3.5648,3.5657,3.57,3.5702,3.5669,3.5671,3.5672,3.5672,0,0,0,0,0,0,0,3.5538,3.5543,3.5602,3.5588,3.5589,3.5587,3.5591,3.562,3.5631,3.5608,3.5608,3.5613,3.5644,3.5655,3.5658,3.5703,3.5669,3.5671,3.5673,3.5674,3.5781,3.5783,0,0,0,0,0,0,3.5534,3.5541,3.56,3.5603,3.5561,3.5589,3.5594,3.5608,3.5631,3.5633,3.5613,3.5612,3.5651,3.5655,3.566,3.5707,3.5672,3.5674,3.5676,3.578,3.5782,3.5783,0,0,0,0,0,0,3.5533,3.554,3.5599,3.5572,3.5579,3.5592,3.5608,3.561,3.562,3.5635,3.5637,3.5622,3.565,3.5656,3.569,3.5708,3.5675,3.5678,3.5779,3.5781,3.5782,3.5801,0,0,0,0,0,0,3.553,3.5539,3.5553,3.5572,3.5581,3.5627,3.5609,3.5611,3.5625,3.5623,3.5644,3.5646,3.565,3.5686,3.5692,3.5711,3.568,3.5777,3.5779,3.5782,3.5798,3.5803,3.5807,0,0,0,0,0,3.5527,3.5556,3.5554,3.5561,3.5599,3.5628,3.5633,3.5638,3.5626,3.5641,3.5651,3.5645,3.5705,3.5689,3.5696,3.5716,3.5776,3.5779,3.5781,3.5797,3.5802,3.5807,0,0,0,0,0,0,3.5538,3.5558,3.5556,3.5592,3.5609,3.5627,3.5645,3.5643,3.5663,3.5661,3.5665,3.567,3.5704,3.5714,3.5695,3.5756,3.5739,3.5743,3.5748,3.5753,3.5757,3.5754,3.5682,0,0,0,0,0,3.5544,3.5567,3.5584,3.5614,3.5622,3.5633,3.5646,3.5648,3.5665,3.5672,3.5684,3.5702,3.5725,3.5739,3.5761,3.58,3.5805,3.5818,3.5822,3.5825,3.5829,3.5852,3.5858,3.5792,3.5792,3.5792,0,0,3.5558,3.5572,3.5585,3.5616,3.5629,3.5653,3.5638,3.5663,3.5682,3.5676,3.5708,3.5718,3.5738,3.5775,3.5792,3.5784,3.5849,3.5829,3.5831,3.5833,3.5856,3.5862,3.5868,3.5794,3.5794,3.5794,0,0,3.5595,3.5607,3.5634,3.5648,3.5669,3.5676,3.5683,3.5702,3.5709,3.5742,3.5739,3.576,3.5799,3.5814,3.5827,3.5872,3.5868,3.5879,3.5901,3.5923,3.5929,3.5933,3.5951,3.5957,3.5883,3.5883,3.5883,0,3.5609,3.5644,3.5648,3.5675,3.5689,3.5686,3.5714,3.5727,3.5754,3.5764,3.5755,3.5806,3.5818,3.586,3.5871,3.5881,3.589,3.5876,3.5927,3.5932,3.5937,3.5953,3.596,3.5884,3.5884,3.5884,3.5884,0,3.5661,3.5686,3.5705,3.5732,3.5749,3.5775,3.5785,3.5801,3.5803,3.5811,3.5846,3.5862,3.5887,3.5897,3.5898,3.5939,3.5934,3.5926,3.591,3.5944,3.596,3.5966,3.5886,3.5885,3.5885,3.5885,0,0,3.5704,3.5734,3.5742,3.5755,3.5778,3.5798,3.5825,3.5851,3.5866,3.5885,3.5909,3.5943,3.5937,3.5951,3.5954,3.5974,3.6011,3.5964,3.5964,3.5973,3.6059,3.6065,3.6072,3.6009,3.601,3.6011,3.6057,0,3.5744,3.5793,3.5799,3.5842,3.5866,3.5865,3.5889,3.5907,3.5916,3.5938,3.5948,3.5973,3.5962,3.5971,3.5991,3.6002,3.6028,3.5999,3.6032,3.6033,3.6027,3.608,3.6086,3.6129,3.6064,3.6065,3.6065,0,3.5796,3.5818,3.5864,3.5886,3.5897,3.5918,3.5944,3.5964,3.5985,3.5991,3.6008,3.6009,3.6039,3.6022,3.6064,3.6044,3.6058,3.6066,3.6068,3.6071,3.6051,3.6086,3.6143,3.615,3.6075,3.6074,3.6073,0,3.5824,3.5865,3.5898,3.5909,3.5936,3.5952,3.5963,3.5983,3.5999,3.6021,3.6032,3.6057,3.6071,3.6091,3.61,3.6086,3.6142,3.6125,3.6148,3.6148,3.6159,3.6159,3.6221,3.6168,3.6168,3.6168,3.6168,0,3.5868,3.5897,3.5912,3.5932,3.5965,3.5972,3.6004,3.6016,3.6034,3.6057,3.6057,3.608,3.6089,3.6113,3.612,3.6155,3.6161,3.6167,3.6168,3.6167,3.6166,3.6176,3.6174,3.6169,3.6169,3.6169,3.6168,0,3.5905,3.5916,3.5952,3.5975,3.5982,3.6005,3.6025,3.6045,3.6055,3.6085,3.6092,3.6108,3.6136,3.6147,3.6181,3.6186,3.6226,3.6225,3.6219,3.622,3.6243,3.6241,3.6314,3.6324,3.6264,3.6265,3.6265,0,3.5932,3.5955,3.598,3.5996,3.6009,3.6034,3.6051,3.606,3.6077,3.6104,3.6121,3.615,3.6173,3.6219,3.6233,3.626,3.626,3.6284,3.6264,3.6263,3.6262,3.6261,3.6263,3.6288,3.6288,3.6289,3.6289,0,3.5981,3.5985,3.6009,3.6036,3.6056,3.6077,3.6097,3.6111,3.6123,3.6142,3.6172,3.619,3.6226,3.6255,3.6283,3.6296,3.6295,3.6295,3.6302,3.6301,3.6298,3.6301,3.623,3.6294,3.6293,3.6293,3.6293,3.6292,3.6014,3.6035,3.6056,3.6084,3.61,3.612,3.6141,3.6154,3.6179,3.6209,3.6213,3.6245,3.6267,3.6305,3.6319,3.6345,3.6338,3.6348,3.6351,3.6353,3.6355,3.6293,3.635,3.635,3.635,3.6349,3.6349,0,3.6063,3.6078,3.6103,3.6132,3.6154,3.6152,3.6175,3.6193,3.6222,3.6242,3.6266,3.6301,3.6329,3.6347,3.6375,3.6393,3.6393,3.64,3.6399,3.6403,3.6359,3.635,3.64,3.64,3.64,3.64,3.64,3.6399,3.6091,3.6126,3.6134,3.6178,3.6192,3.6224,3.6238,3.6256,3.6273,3.6312,3.6336,3.6347,3.6367,3.6398,3.6425,3.6429,3.644,3.6448,3.6452,3.6411,3.6405,3.64,3.6393,3.645,3.645,3.6494,3.6494,3.6494]},{"header":{"parameterUnit":"m.s-1","parameterCategory":1,"la1":30.2991,"la2":30.254,"lo1":-89.0895,"lo2":-89.0444,"dy":0.0017,"dx":0.0017,"nx":28,"ny":28,"refTime":"2024-04-02T21:00:00:Z","depth":0,"parameterNumber":3,"parameterNumberName":"V-component_of_WINDS"},"data":[0,0,0,0,0,0,0,0,0,0,0,0,0,0,0,0,0,0,0,0,0,0,0,0,0,0,0,0,0,0,0,0,0,0,0,0,0,0,0,0,0,0,0,0,0,0,0,0,0,0,0,0,0,0,0,0,0,0,-4.3663,-4.3664,0,-4.3739,-4.3739,-4.374,-4.3772,-4.3772,-4.3772,-4.3772,-4.3845,-4.3847,-4.3849,0,0,0,0,0,0,0,0,0,0,0,0,0,-4.3544,-4.3546,-4.3663,-4.3664,-4.3665,-4.3738,-4.3739,-4.374,-4.3772,-4.3772,-4.3772,-4.3771,-4.3845,-4.3847,-4.385,0,0,0,0,0,0,0,0,0,0,0,0,0,-4.3605,-4.3547,-4.3663,-4.3689,-4.3693,-4.3738,-4.374,-4.3741,-4.3772,-4.3772,-4.3772,-4.3771,-4.3844,-4.3847,-4.385,-4.3873,0,0,-4.386,-4.3861,0,0,0,0,0,0,0,0,-4.3602,-4.3609,-4.3685,-4.3688,-4.3691,-4.3746,-4.3725,-4.3785,-4.3772,-4.3742,-4.3772,-4.3771,-4.3812,-4.3818,-4.3832,-4.3877,-4.388,-4.386,-4.3862,-4.3863,-4.3864,0,0,0,0,0,0,0,-4.3597,-4.3606,-4.3693,-4.3686,-4.369,-4.3697,-4.3706,-4.3736,-4.3777,-4.3744,-4.3747,-4.3756,-4.3814,-4.3829,-4.3834,-4.3881,-4.386,-4.3862,-4.3864,-4.3866,-4.3951,-4.3951,0,0,0,0,0,0,-4.3589,-4.3603,-4.369,-4.3695,-4.3645,-4.3699,-4.3709,-4.3728,-4.3777,-4.3784,-4.3756,-4.3757,-4.3824,-4.3831,-4.3837,-4.3869,-4.3863,-4.3866,-4.3868,-4.3951,-4.3951,-4.3952,0,0,0,0,0,0,-4.3586,-4.3597,-4.3687,-4.365,-4.3662,-4.3702,-4.3723,-4.373,-4.3745,-4.3785,-4.3793,-4.3764,-4.3824,-4.3833,-4.3865,-4.3872,-4.3867,-4.387,-4.395,-4.3951,-4.3951,-4.3933,0,0,0,0,0,0,-4.3583,-4.3595,-4.3605,-4.365,-4.3664,-4.3714,-4.3724,-4.3732,-4.3751,-4.3753,-4.3795,-4.3802,-4.3825,-4.386,-4.3868,-4.3876,-4.3873,-4.395,-4.3951,-4.3951,-4.3933,-4.3932,-4.3932,0,0,0,0,0,-4.3578,-4.3595,-4.3605,-4.3616,-4.3677,-4.3715,-4.3723,-4.3749,-4.3752,-4.3762,-4.3788,-4.38,-4.387,-4.3863,-4.3872,-4.3882,-4.3949,-4.395,-4.3951,-4.3933,-4.3932,-4.3932,0,0,0,0,0,0,-4.3548,-4.3601,-4.3613,-4.3645,-4.3675,-4.372,-4.3733,-4.3748,-4.3777,-4.3778,-4.3809,-4.3818,-4.3848,-4.3868,-4.3859,-4.3908,-4.3911,-4.3914,-4.3894,-4.3894,-4.3894,-4.3888,-4.3875,0,0,0,0,0,-4.3546,-4.3573,-4.3618,-4.3642,-4.3657,-4.3692,-4.371,-4.3728,-4.376,-4.3773,-4.3801,-4.3831,-4.386,-4.3878,-4.3907,-4.3936,-4.3946,-4.3947,-4.3947,-4.3947,-4.3948,-4.3967,-4.3969,-4.3954,-4.3954,-4.3954,0,0,-4.354,-4.3572,-4.3587,-4.3637,-4.3662,-4.369,-4.3703,-4.373,-4.3751,-4.3777,-4.381,-4.3832,-4.3867,-4.3899,-4.3914,-4.3916,-4.3955,-4.3948,-4.3947,-4.3949,-4.3968,-4.397,-4.3971,-4.3955,-4.3955,-4.3955,0,0,-4.3544,-4.3571,-4.3595,-4.3621,-4.366,-4.3684,-4.369,-4.3733,-4.375,-4.3784,-4.3804,-4.3829,-4.3877,-4.3902,-4.3921,-4.3938,-4.3951,-4.3946,-4.3944,-4.3962,-4.3964,-4.3965,-4.3971,-4.3973,-4.3948,-4.3948,-4.3948,0,-4.3531,-4.3574,-4.3604,-4.3632,-4.3654,-4.368,-4.3705,-4.3728,-4.3774,-4.3789,-4.3791,-4.3855,-4.388,-4.3919,-4.3923,-4.3937,-4.3945,-4.3941,-4.3961,-4.3963,-4.3964,-4.3971,-4.3973,-4.3947,-4.3947,-4.3947,-4.3947,0,-4.3557,-4.3587,-4.3601,-4.3648,-4.3671,-4.3696,-4.3731,-4.375,-4.3767,-4.3791,-4.3826,-4.3859,-4.3895,-4.3906,-4.3922,-4.3947,-4.3948,-4.3955,-4.3959,-4.3964,-4.3971,-4.3974,-4.3946,-4.3946,-4.3947,-4.3947,0,0,-4.3542,-4.3607,-4.3612,-4.3634,-4.3681,-4.3704,-4.3732,-4.3769,-4.3786,-4.3817,-4.3842,-4.3884,-4.3892,-4.3914,-4.3933,-4.3949,-4.3961,-4.3955,-4.3956,-4.3955,-4.3993,-4.3987,-4.3989,-4.3971,-4.3971,-4.3972,-4.399,0,-4.3552,-4.3604,-4.3634,-4.3673,-4.3701,-4.3728,-4.3753,-4.3784,-4.3808,-4.3835,-4.386,-4.389,-4.3898,-4.3912,-4.3929,-4.3956,-4.3969,-4.3955,-4.3993,-4.3994,-4.3983,-4.3993,-4.3986,-4.4001,-4.3993,-4.3993,-4.3993,0,-4.3571,-4.3604,-4.3647,-4.3693,-4.3706,-4.3727,-4.3765,-4.3791,-4.3827,-4.3843,-4.3869,-4.3889,-4.392,-4.3921,-4.3964,-4.3954,-4.3971,-4.3987,-4.3989,-4.3993,-4.3994,-4.3997,-4.4007,-4.4009,-4.3998,-4.3997,-4.3997,0,-4.3556,-4.3612,-4.3645,-4.3663,-4.3717,-4.3732,-4.3755,-4.3792,-4.3813,-4.3846,-4.386,-4.3896,-4.3915,-4.3942,-4.3971,-4.397,-4.4011,-4.4015,-4.4025,-4.4025,-4.4032,-4.4031,-4.4045,-4.4043,-4.4043,-4.4043,-4.4043,0,-4.3565,-4.359,-4.364,-4.366,-4.369,-4.3724,-4.3752,-4.3777,-4.381,-4.3835,-4.3861,-4.3884,-4.3921,-4.3949,-4.3972,-4.4005,-4.4013,-4.4027,-4.4032,-4.4025,-4.4023,-4.4036,-4.4036,-4.4044,-4.4044,-4.4044,-4.4043,0,-4.3553,-4.3588,-4.3626,-4.3675,-4.3688,-4.3708,-4.375,-4.3771,-4.3797,-4.3829,-4.3839,-4.3879,-4.3914,-4.3946,-4.3991,-4.4007,-4.404,-4.4047,-4.4028,-4.4031,-4.404,-4.4039,-4.4062,-4.4067,-4.4062,-4.4062,-4.4062,0,-4.3556,-4.3577,-4.3629,-4.3649,-4.3672,-4.3703,-4.3726,-4.3761,-4.3784,-4.3828,-4.3844,-4.3881,-4.3912,-4.3967,-4.3999,-4.4035,-4.4043,-4.4049,-4.4049,-4.4041,-4.4044,-4.4043,-4.4045,-4.4048,-4.4048,-4.4048,-4.4048,0,-4.3558,-4.3575,-4.3608,-4.3647,-4.3674,-4.3706,-4.3739,-4.3753,-4.3794,-4.3819,-4.3856,-4.388,-4.3928,-4.3965,-4.4005,-4.4028,-4.4045,-4.4049,-4.4053,-4.4045,-4.4033,-4.404,-4.4027,-4.4047,-4.4048,-4.4048,-4.4048,-4.4048,-4.3554,-4.3575,-4.3616,-4.3651,-4.3681,-4.3711,-4.3734,-4.3764,-4.3796,-4.3839,-4.3857,-4.3895,-4.3933,-4.3988,-4.4012,-4.4041,-4.4045,-4.4051,-4.4052,-4.4053,-4.4052,-4.4029,-4.4048,-4.4048,-4.4049,-4.4049,-4.4049,0,-4.3558,-4.3587,-4.362,-4.3666,-4.3695,-4.3711,-4.3748,-4.3771,-4.3804,-4.3839,-4.387,-4.3913,-4.3949,-4.3986,-4.4025,-4.4041,-4.405,-4.405,-4.4049,-4.4054,-4.4046,-4.4039,-4.4042,-4.4042,-4.4042,-4.4042,-4.4042,-4.4042,-4.3564,-4.3599,-4.3621,-4.3672,-4.37,-4.3738,-4.3759,-4.3788,-4.3816,-4.3863,-4.3894,-4.3919,-4.3954,-4.3996,-4.403,-4.404,-4.4053,-4.4051,-4.4063,-4.4055,-4.4055,-4.4055,-4.4048,-4.4053,-4.4053,-4.4069,-4.4069,-4.4069]}]]